SL-14 DEB, 45296

Orbit data source: Space-Track

SL-14 DEB, 45296 is space debris in LEO originally from a launch on Thu, 15 Aug 1991 UTC launched from the Plesetsk Missile And Space Complex (PKMTR). Debris objects in space refer to the collection of defunct objects orbiting the Earth. Examples of debris include non-operational satellites, rocket bodies, and fragments generated from explosions, collisions, or faulty payload assembly.

Loading next visibility...
Identifier
45296, 1991-056AJ
Orbit
LEO
Country
Flag of CISCIS
Related business
Manufacturer
Unknown
Mission
Spacecraft
Bus & Motor
Unknown
Mass
Unknown
Launch date (UTC)
1991-08-15 (34 years ago)
Launch vehicle
Unknown
Launch site
Plesetsk Missile And Space Complex (PKMTR)
Object type
Payload
Rocket body
Debris
Shape & HBR
Unknown shape, 0.1 m
Radar Cross Section
Small (<0.1 m²)

Expand to show TLE details & history
Last TLE update: 1 day ago

TLE from 1 day ago
0 SL-14 DEB
1 45296U 91056AJ  25291.71539898  .00007177  00000-0  63261-2 0  9998
2 45296  82.6411 205.5604 0186608 233.0379 125.3568 13.77517384281005
Epoch: 2025-10-18T17:10Z
TLE epoch observation values (Epoch: 2025-10-18T17:10:10.471Z)
Latitude
-0.00002°
Longitude
-79.42567°
Altitude
1,056.668 km
Speed
7.283 km/s
True Right ascension
13h 42m 14s
True Declination
0° 00' 00"
Sunlit
Object was in daylight at epoch
Visualization orbit readout
Latitude
Unknown
Longitude
Unknown
Altitude
Unknown
Speed
Unknown
Apparent Right ascension
Unknown
Apparent Declination
Unknown
Sunlit
N/A
Visualization observer readout
Local Sidereal Time
15:01:18
Azimuth
Unknown
Elevation
Unknown
Doppler factor
Unknown
Orbital elements
Apogee altitude
1,106.981 km
Perigee altitude
832.742 km
Semi-major axis
7,347.998 km
Eccentricity
0.01866
Inclination
82.6411°
RAAN
205.5604°
Arg. of periapsis
233.0379°
True anomaly
127.07728°
Mean anomaly
125.3568°
Eccentric anomaly
126.21938°
Mean motion
3.4458 °/min
Orbital period
104.48 mins
BSTAR
0.0063261
Loading maneuver chart data...
Computing Atmospheric mass density...
Loading historical data...
Loading historical data...
Loading historical data...
Loading historical data...
Loading historical data...
Loading historical data...
Loading historical data...

Documentation

Showing up to 5 results
|